Home   Weather   Richmond Hill   Past weeks

Flag for Canada Past Weather in Richmond Hill, Ontario, Canada — Yesterday and Last 2 Weeks

Now
75 °F

Passing clouds.


Feels Like: 77 °F
Forecast: 61 / 73 °F
Wind: 10 mph from North

Location: Toronto Buttonville

Current Time: Jul 27, 2017 at 9:08:16 pm

Latest Report: Jul 27, 2017 at 8:00 pm


Visibility: 15 mi

Pressure: 29.89 "Hg

Humidity: 61%

Dew Point: 61 °F

Location of Richmond HillLocation

Past Weather in Richmond Hill — Graph

°F

Richmond Hill Temperature Yesterday

Maximum temperature yesterday: 70 °F (at 10:00 am)
Minimum temperature yesterday: 55 °F (at 5:00 am)
Average temperature yesterday: 64 °F

High & Low Weather Summary for the Past Weeks

 TemperatureHumidityPressure
High86 °F (Jul 19, 4:00 pm)100% (Jul 12, 8:00 pm)30.23 "Hg (Jul 12, 8:00 pm)
Low55 °F (Jul 26, 5:00 am)42% (Jul 21, 4:00 pm)29.57 "Hg (Jul 20, 12:33 pm)
Average69 °F78%29.96 "Hg
* Reported Jul 12 7:00 pm — Jul 27 7:00 pm, Richmond Hill. Weather by CustomWeather, © 2017

Note: Actual official high and low records may vary slightly from our data, if they occured in-between our weather recording intervals... More about our weather records

Advertising

Richmond Hill Weather History for the Previous 24 Hours

Scroll right to see more
 ConditionsComfort  
Time TempWeatherWind HumidityBarometerVisibility
7:00 pm
Thu, Jul 27
79 °FPassing clouds.9 mph51%29.88 "Hg15 mi
6:00 pm79 °FPassing clouds.14 mph54%29.87 "Hg15 mi
5:00 pm81 °FScattered clouds.12 mph48%29.88 "Hg15 mi
4:00 pm79 °FPartly sunny.3 mph51%29.88 "Hg15 mi
3:00 pm79 °FBroken clouds.9 mph61%29.90 "Hg15 mi
2:00 pm77 °FPartly sunny.7 mph69%29.91 "Hg15 mi
1:00 pm73 °FPartly sunny.5 mph83%29.91 "Hg15 mi
12:00 pm73 °FBroken clouds.3 mph83%29.92 "Hg15 mi
11:00 am70 °FPartly sunny.6 mph88%29.93 "Hg10 mi
10:09 am68 °FSprinkles. Overcast.3 mph94%29.95 "Hg7 mi
9:32 am68 °FSprinkles. Fog.5 mph94%29.95 "Hg6 mi
9:00 am68 °FSprinkles. Fog.3 mph94%29.96 "Hg6 mi
8:00 am68 °FSprinkles. Overcast.5 mph94%29.95 "Hg8 mi
7:23 am66 °FMostly cloudy.3 mph94%29.95 "Hg10 mi
7:02 am66 °FLight rain. Partly sunny.5 mph94%29.94 "Hg12 mi
6:36 am66 °FPartly sunny.5 mph94%29.95 "Hg8 mi
6:00 am66 °FLight rain. Mostly cloudy.6 mph94%29.96 "Hg10 mi
5:17 am66 °FSprinkles. Fog.6 mph94%29.96 "Hg2 mi
5:00 am66 °FLight rain. Mostly cloudy.3 mph94%29.95 "Hg8 mi
4:00 am66 °FLight rain. Mostly cloudy.6 mph94%29.94 "Hg8 mi
3:00 am66 °FLight rain. Mostly cloudy.6 mph94%29.94 "Hg12 mi
2:00 am66 °FLight rain. Mostly cloudy.6 mph88%29.97 "Hg12 mi
1:00 am64 °FLight rain. Overcast.No wind94%29.98 "Hg12 mi
12:00 am64 °FLight rain. Overcast.2 mph94%30.00 "Hg15 mi
11:00 pm
Wed, Jul 26
64 °FOvercast.2 mph94%30.01 "Hg15 mi
10:00 pm64 °FMostly cloudy.5 mph94%30.03 "Hg15 mi
9:04 pm64 °FLight rain. Overcast.6 mph88%30.02 "Hg15 mi
Weather by CustomWeather, © 2017

See weather overviewHow to use our weather pages